Time,TemperatureF,DewpointF,PressureIn,WindDirection,WindDirectionDegrees,WindSpeedMPH,WindSpeedGustMPH,Humidity,HourlyPrecipIn,Conditions,Clouds,dailyrainin,SolarRadiationWatts/m^2,SoftwareType,DateUTC
2014-02-03 00:01:00,44.2,40.0,30.15,NW,323,11.5,11.5,85,0.00,CLR,SKC,0.00,0.0,WeatherDisplay:10.37,2014-02-03 06:01:00,
2014-02-03 00:06:00,44.0,39.8,30.15,NW,319,10.4,10.4,85,0.00,CLR,SKC,0.00,0.0,WeatherDisplay:10.37,2014-02-03 06:06:00,
2014-02-03 00:11:00,43.9,39.7,30.15,North,9,15.0,15.0,85,0.00,CLR,SKC,0.00,0.0,WeatherDisplay:10.37,2014-02-03 06:11:00,
2014-02-03 00:16:00,44.0,39.8,30.15,NNE,12,12.0,12.0,85,0.00,CLR,SKC,0.00,0.0,WeatherDisplay:10.37,2014-02-03 06:16:00,
2014-02-03 00:21:00,43.8,39.6,30.15,NNW,330,11.5,11.5,85,0.00,CLR,SKC,0.00,0.0,WeatherDisplay:10.37,2014-02-03 06:21:00,
2014-02-03 00:26:00,43.8,39.6,30.14,NNW,347,12.0,12.0,85,0.00,CLR,SKC,0.00,0.0,WeatherDisplay:10.37,2014-02-03 06:26:00,
2014-02-03 00:31:00,43.8,39.6,30.14,NE,36,10.4,10.4,85,0.00,CLR,SKC,0.00,0.0,WeatherDisplay:10.37,2014-02-03 06:31:00,
2014-02-03 00:36:00,43.7,39.5,30.14,NNW,347,12.7,12.7,85,0.00,CLR,SKC,0.00,0.0,WeatherDisplay:10.37,2014-02-03 06:36:00,
2014-02-03 00:41:00,43.8,39.9,30.14,North,5,13.8,13.8,86,0.00,CLR,SKC,0.00,0.0,WeatherDisplay:10.37,2014-02-03 06:41:00,
2014-02-03 00:46:00,43.8,39.9,30.14,NNW,334,6.9,6.9,86,0.00,CLR,SKC,0.00,0.0,WeatherDisplay:10.37,2014-02-03 06:46:00,
2014-02-03 00:51:00,43.8,39.6,30.14,NNW,347,13.0,13.0,85,0.00,CLR,SKC,0.00,0.0,WeatherDisplay:10.37,2014-02-03 06:51:00,
2014-02-03 00:56:00,43.8,39.6,30.14,NW,326,13.8,13.8,85,0.00,CLR,SKC,0.00,0.0,WeatherDisplay:10.37,2014-02-03 06:56:00,
2014-02-03 01:01:00,43.8,39.9,30.14,NNW,341,9.0,9.0,86,0.00,CLR,SKC,0.00,0.0,WeatherDisplay:10.37,2014-02-03 07:01:00,
2014-02-03 01:06:00,43.6,39.7,30.14,North,355,10.4,10.4,86,0.00,CLR,SKC,0.00,0.0,WeatherDisplay:10.37,2014-02-03 07:06:00,
2014-02-03 01:11:00,43.6,39.7,30.15,NNE,16,10.0,10.0,86,0.00,CLR,SKC,0.00,0.0,WeatherDisplay:10.37,2014-02-03 07:11:00,
2014-02-03 01:16:00,43.6,39.7,30.15,NNE,18,8.1,8.1,86,0.00,CLR,SKC,0.00,0.0,WeatherDisplay:10.37,2014-02-03 07:16:00,
2014-02-03 01:21:00,43.6,39.7,30.15,NNW,336,11.5,11.5,86,0.00,CLR,SKC,0.00,0.0,WeatherDisplay:10.37,2014-02-03 07:21:00,
2014-02-03 01:26:00,43.7,39.8,30.15,North,360,11.0,11.0,86,0.00,CLR,SKC,0.00,0.0,WeatherDisplay:10.37,2014-02-03 07:26:00,
2014-02-03 01:31:00,43.7,39.8,30.15,NNW,343,13.0,13.0,86,0.00,CLR,SKC,0.00,0.0,WeatherDisplay:10.37,2014-02-03 07:31:00,
2014-02-03 01:36:00,43.5,39.6,30.15,WNW,293,12.7,12.7,86,0.00,CLR,SKC,0.00,0.0,WeatherDisplay:10.37,2014-02-03 07:36:00,
2014-02-03 01:41:00,43.4,39.5,30.14,NNW,345,16.1,16.1,86,0.00,CLR,SKC,0.00,0.0,WeatherDisplay:10.37,2014-02-03 07:41:00,
2014-02-03 01:46:00,43.5,39.6,30.14,North,5,10.4,10.4,86,0.00,CLR,SKC,0.00,0.0,WeatherDisplay:10.37,2014-02-03 07:46:00,
2014-02-03 01:51:00,43.4,39.5,30.14,North,5,15.0,15.0,86,0.00,CLR,SKC,0.00,0.0,WeatherDisplay:10.37,2014-02-03 07:51:00,
2014-02-03 01:56:00,43.4,39.5,30.14,NW,325,11.5,11.5,86,0.00,CLR,SKC,0.00,0.0,WeatherDisplay:10.37,2014-02-03 07:56:00,
2014-02-03 02:01:00,43.4,39.5,30.14,North,9,11.5,11.5,86,0.00,CLR,SKC,0.00,0.0,WeatherDisplay:10.37,2014-02-03 08:01:00,
2014-02-03 02:06:00,43.5,39.6,30.14,NW,321,11.5,11.5,86,0.00,CLR,SKC,0.00,0.0,WeatherDisplay:10.37,2014-02-03 08:06:00,
2014-02-03 02:11:00,43.5,39.6,30.15,NNW,331,12.7,12.7,86,0.00,CLR,SKC,0.00,0.0,WeatherDisplay:10.37,2014-02-03 08:11:00,
2014-02-03 02:16:00,43.4,39.2,30.15,NNW,334,11.5,11.5,85,0.00,CLR,SKC,0.00,0.0,WeatherDisplay:10.37,2014-02-03 08:16:00,
2014-02-03 02:21:00,43.3,39.1,30.15,NNW,327,15.0,15.0,85,0.00,CLR,SKC,0.00,0.0,WeatherDisplay:10.37,2014-02-03 08:21:00,
2014-02-03 02:26:00,43.3,39.1,30.14,NNW,338,12.7,12.7,85,0.00,CLR,SKC,0.00,0.0,WeatherDisplay:10.37,2014-02-03 08:26:00,
2014-02-03 02:31:00,43.0,39.1,30.14,NW,311,16.1,16.1,86,0.00,CLR,SKC,0.00,0.0,WeatherDisplay:10.37,2014-02-03 08:31:00,
2014-02-03 02:36:00,42.9,39.0,30.14,WNW,302,13.0,13.0,86,0.00,CLR,SKC,0.00,0.0,WeatherDisplay:10.37,2014-02-03 08:36:00,
2014-02-03 02:41:00,42.4,38.5,30.14,NW,325,17.3,17.3,86,0.00,CLR,SKC,0.00,0.0,WeatherDisplay:10.37,2014-02-03 08:41:00,
2014-02-03 02:46:00,42.3,38.7,30.14,NNW,334,16.0,16.0,87,0.00,CLR,SKC,0.00,0.0,WeatherDisplay:10.37,2014-02-03 08:46:00,
2014-02-03 02:51:00,41.9,38.3,30.14,NNW,333,15.0,15.0,87,0.00,CLR,SKC,0.00,0.0,WeatherDisplay:10.37,2014-02-03 08:51:00,
2014-02-03 02:56:00,41.7,38.1,30.14,North,355,11.5,11.5,87,0.00,CLR,SKC,0.00,0.0,WeatherDisplay:10.37,2014-02-03 08:56:00,
2014-02-03 03:01:00,41.5,38.2,30.14,North,355,15.0,15.0,88,0.00,CLR,SKC,0.00,0.0,WeatherDisplay:10.37,2014-02-03 09:01:00,
2014-02-03 03:06:00,41.3,38.0,30.14,NNE,33,12.7,12.7,88,0.00,CLR,SKC,0.00,0.0,WeatherDisplay:10.37,2014-02-03 09:06:00,
2014-02-03 03:11:00,41.1,37.8,30.15,WNW,302,12.7,12.7,88,0.00,CLR,SKC,0.00,0.0,WeatherDisplay:10.37,2014-02-03 09:11:00,
2014-02-03 03:16:00,40.8,37.5,30.15,NW,323,12.7,12.7,88,0.00,CLR,SKC,0.00,0.0,WeatherDisplay:10.37,2014-02-03 09:16:00,
2014-02-03 03:21:00,40.9,37.6,30.15,NW,323,13.8,13.8,88,0.00,CLR,SKC,0.00,0.0,WeatherDisplay:10.37,2014-02-03 09:21:00,
2014-02-03 03:26:00,40.9,37.6,30.14,North,5,11.5,11.5,88,0.00,CLR,SKC,0.00,0.0,WeatherDisplay:10.37,2014-02-03 09:26:00,
2014-02-03 03:31:00,40.6,37.3,30.14,NW,304,12.7,12.7,88,0.00,CLR,SKC,0.00,0.0,WeatherDisplay:10.37,2014-02-03 09:31:00,
2014-02-03 03:36:00,40.5,37.5,30.14,NW,319,16.1,16.1,89,0.00,CLR,SKC,0.00,0.0,WeatherDisplay:10.37,2014-02-03 09:36:00,
2014-02-03 03:41:00,40.4,37.1,30.13,NW,321,15.0,15.0,88,0.00,CLR,SKC,0.00,0.0,WeatherDisplay:10.37,2014-02-03 09:41:00,
2014-02-03 03:46:00,40.5,37.2,30.13,NW,320,12.7,12.7,88,0.00,CLR,SKC,0.00,0.0,WeatherDisplay:10.37,2014-02-03 09:46:00,
2014-02-03 03:51:00,40.5,37.2,30.13,North,355,10.4,10.4,88,0.00,CLR,SKC,0.00,0.0,WeatherDisplay:10.37,2014-02-03 09:51:00,
2014-02-03 03:56:00,40.5,37.2,30.14,NW,319,10.4,10.4,88,0.00,CLR,SKC,0.00,0.0,WeatherDisplay:10.37,2014-02-03 09:56:00,
2014-02-03 04:01:00,40.5,37.2,30.14,North,355,13.8,13.8,88,0.00,CLR,SKC,0.00,0.0,WeatherDisplay:10.37,2014-02-03 10:01:00,
2014-02-03 04:06:00,40.6,37.3,30.14,North,5,15.0,15.0,88,0.00,CLR,SKC,0.00,0.0,WeatherDisplay:10.37,2014-02-03 10:06:00,
2014-02-03 04:11:00,40.6,37.3,30.13,NW,322,9.2,9.2,88,0.00,CLR,SKC,0.00,0.0,WeatherDisplay:10.37,2014-02-03 10:11:00,
2014-02-03 04:16:00,40.3,37.0,30.13,North,355,11.5,11.5,88,0.00,CLR,SKC,0.00,0.0,WeatherDisplay:10.37,2014-02-03 10:16:00,
2014-02-03 04:21:00,40.2,36.9,30.13,NW,317,12.7,12.7,88,0.00,CLR,SKC,0.00,0.0,WeatherDisplay:10.37,2014-02-03 10:21:00,
2014-02-03 04:26:00,40.3,37.3,30.13,NNW,348,10.4,10.4,89,0.00,CLR,SKC,0.00,0.0,WeatherDisplay:10.37,2014-02-03 10:26:00,
2014-02-03 04:31:00,39.8,36.5,30.13,NW,317,15.0,15.0,88,0.00,CLR,SKC,0.00,0.0,WeatherDisplay:10.37,2014-02-03 10:31:00,
2014-02-03 04:36:00,39.9,36.9,30.13,North,360,10.4,10.4,89,0.00,CLR,SKC,0.00,0.0,WeatherDisplay:10.37,2014-02-03 10:36:00,
2014-02-03 04:41:00,39.8,36.8,30.14,NNW,348,11.5,11.5,89,0.00,CLR,SKC,0.00,0.0,WeatherDisplay:10.37,2014-02-03 10:41:00,
2014-02-03 04:46:00,39.8,36.8,30.14,NW,318,11.5,11.5,89,0.00,CLR,SKC,0.00,0.0,WeatherDisplay:10.37,2014-02-03 10:46:00,
2014-02-03 04:51:00,39.8,36.8,30.14,NNW,344,10.4,10.4,89,0.00,CLR,SKC,0.00,0.0,WeatherDisplay:10.37,2014-02-03 10:51:00,
2014-02-03 04:56:00,39.9,36.9,30.13,NNW,343,10.4,10.4,89,0.00,CLR,SKC,0.00,0.0,WeatherDisplay:10.37,2014-02-03 10:56:00,
2014-02-03 05:01:00,39.8,36.8,30.13,North,5,9.2,9.2,89,0.00,CLR,SKC,0.00,0.0,WeatherDisplay:10.37,2014-02-03 11:01:00,
2014-02-03 05:06:00,39.8,36.8,30.13,NNE,30,11.5,11.5,89,0.00,CLR,SKC,0.00,0.0,WeatherDisplay:10.37,2014-02-03 11:06:00,
2014-02-03 05:11:00,39.8,36.8,30.13,NNW,336,11.5,11.5,89,0.00,CLR,SKC,0.00,0.0,WeatherDisplay:10.37,2014-02-03 11:11:00,
2014-02-03 05:16:00,39.7,36.7,30.13,NW,321,11.5,11.5,89,0.00,CLR,SKC,0.00,0.0,WeatherDisplay:10.37,2014-02-03 11:16:00,
2014-02-03 05:21:00,40.0,37.0,30.13,NNE,17,6.9,6.9,89,0.00,CLR,SKC,0.00,0.0,WeatherDisplay:10.37,2014-02-03 11:21:00,
2014-02-03 05:26:00,39.9,36.9,30.13,NNE,14,10.4,10.4,89,0.00,CLR,SKC,0.00,0.0,WeatherDisplay:10.37,2014-02-03 11:26:00,
2014-02-03 05:31:00,39.8,36.8,30.13,NNE,28,10.4,10.4,89,0.00,CLR,SKC,0.00,0.0,WeatherDisplay:10.37,2014-02-03 11:31:00,
2014-02-03 05:36:00,39.7,36.7,30.13,NNE,13,6.9,6.9,89,0.00,CLR,SKC,0.00,0.0,WeatherDisplay:10.37,2014-02-03 11:36:00,
2014-02-03 05:41:00,39.9,36.9,30.14,NNW,336,4.6,4.6,89,0.00,CLR,SKC,0.00,0.0,WeatherDisplay:10.37,2014-02-03 11:41:00,
2014-02-03 05:46:00,39.9,36.9,30.14,NNW,346,6.9,6.9,89,0.00,CLR,SKC,0.00,0.0,WeatherDisplay:10.37,2014-02-03 11:46:00,
2014-02-03 05:51:00,39.7,36.7,30.14,NW,311,12.7,12.7,89,0.00,CLR,SKC,0.00,0.0,WeatherDisplay:10.37,2014-02-03 11:51:00,
2014-02-03 05:56:00,39.7,36.7,30.14,NNW,331,6.9,6.9,89,0.00,CLR,SKC,0.00,0.0,WeatherDisplay:10.37,2014-02-03 11:56:00,
2014-02-03 06:01:00,39.7,36.7,30.14,NNW,331,10.4,10.4,89,0.00,CLR,SKC,0.00,0.0,WeatherDisplay:10.37,2014-02-03 12:01:00,
2014-02-03 06:06:00,39.7,36.7,30.14,NW,320,10.4,10.4,89,0.00,CLR,SKC,0.00,0.0,WeatherDisplay:10.37,2014-02-03 12:06:00,
2014-02-03 06:11:00,39.8,36.8,30.14,North,360,6.9,6.9,89,0.00,CLR,SKC,0.00,0.0,WeatherDisplay:10.37,2014-02-03 12:11:00,
2014-02-03 06:16:00,39.8,36.8,30.14,NW,325,10.0,10.0,89,0.00,CLR,SKC,0.00,0.0,WeatherDisplay:10.37,2014-02-03 12:16:00,
2014-02-03 06:21:00,39.7,36.7,30.14,NE,36,6.9,6.9,89,0.00,CLR,SKC,0.00,0.0,WeatherDisplay:10.37,2014-02-03 12:21:00,
2014-02-03 06:26:00,39.6,36.6,30.15,North,11,10.4,10.4,89,0.00,CLR,SKC,0.00,0.0,WeatherDisplay:10.37,2014-02-03 12:26:00,
2014-02-03 06:31:00,39.8,37.1,30.15,NNE,15,6.0,6.0,90,0.00,CLR,SKC,0.00,0.0,WeatherDisplay:10.37,2014-02-03 12:31:00,
2014-02-03 06:36:00,39.7,36.7,30.15,NNE,21,5.8,5.8,89,0.00,CLR,SKC,0.00,0.0,WeatherDisplay:10.37,2014-02-03 12:36:00,
2014-02-03 06:41:00,39.6,36.9,30.16,North,355,8.1,8.1,90,0.00,CLR,SKC,0.00,0.0,WeatherDisplay:10.37,2014-02-03 12:41:00,
2014-02-03 06:46:00,39.5,36.8,30.16,North,355,10.0,10.0,90,0.00,CLR,SKC,0.00,0.0,WeatherDisplay:10.37,2014-02-03 12:46:00,
2014-02-03 06:51:00,39.5,36.8,30.16,North,10,9.2,9.2,90,0.00,CLR,SKC,0.00,0.0,WeatherDisplay:10.37,2014-02-03 12:51:00,
2014-02-03 06:56:00,39.5,36.5,30.16,North,5,12.7,12.7,89,0.00,CLR,SKC,0.00,0.0,WeatherDisplay:10.37,2014-02-03 12:56:00,
2014-02-03 07:01:00,39.6,36.9,30.16,North,355,5.8,5.8,90,0.00,CLR,SKC,0.00,0.0,WeatherDisplay:10.37,2014-02-03 13:01:00,
2014-02-03 07:06:00,39.7,37.0,30.16,NNE,17,10.4,10.4,90,0.00,CLR,SKC,0.00,0.0,WeatherDisplay:10.37,2014-02-03 13:06:00,
2014-02-03 07:11:00,39.6,36.6,30.16,North,5,5.8,5.8,89,0.00,CLR,SKC,0.00,0.0,WeatherDisplay:10.37,2014-02-03 13:11:00,
2014-02-03 07:16:00,39.6,36.9,30.16,North,351,5.8,5.8,90,0.00,CLR,SKC,0.00,0.0,WeatherDisplay:10.37,2014-02-03 13:16:00,
2014-02-03 07:21:00,39.5,36.8,30.16,North,355,5.8,5.8,90,0.00,CLR,SKC,0.00,0.0,WeatherDisplay:10.37,2014-02-03 13:21:00,
2014-02-03 07:26:00,39.4,36.4,30.17,North,360,6.9,6.9,89,0.00,CLR,SKC,0.00,0.0,WeatherDisplay:10.37,2014-02-03 13:26:00,
2014-02-03 07:31:00,39.5,36.5,30.17,NNW,327,6.9,6.9,89,0.00,CLR,SKC,0.00,0.0,WeatherDisplay:10.37,2014-02-03 13:31:00,
2014-02-03 07:36:00,39.4,36.4,30.17,NNE,27,5.8,5.8,89,0.00,CLR,SKC,0.00,5.0,WeatherDisplay:10.37,2014-02-03 13:36:00,
2014-02-03 07:41:00,39.4,36.4,30.18,North,355,8.1,8.1,89,0.00,CLR,SKC,0.00,5.0,WeatherDisplay:10.37,2014-02-03 13:41:00,
2014-02-03 07:46:00,39.3,36.3,30.18,NNE,13,5.8,5.8,89,0.00,CLR,SKC,0.00,7.0,WeatherDisplay:10.37,2014-02-03 13:46:00,
2014-02-03 07:51:00,39.3,36.3,30.18,North,360,6.9,6.9,89,0.00,CLR,SKC,0.00,9.0,WeatherDisplay:10.37,2014-02-03 13:51:00,
2014-02-03 07:56:00,39.5,36.8,30.18,North,9,5.8,5.8,90,0.00,CLR,SKC,0.00,11.0,WeatherDisplay:10.37,2014-02-03 13:56:00,
2014-02-03 08:01:00,39.3,36.3,30.18,NNW,345,10.4,10.4,89,0.00,CLR,SKC,0.00,18.0,WeatherDisplay:10.37,2014-02-03 14:01:00,
2014-02-03 08:06:00,39.4,36.4,30.18,NNW,341,5.8,5.8,89,0.00,CLR,SKC,0.00,12.0,WeatherDisplay:10.37,2014-02-03 14:06:00,
2014-02-03 08:11:00,39.5,36.8,30.18,North,9,9.2,9.2,90,0.00,CLR,SKC,0.00,18.0,WeatherDisplay:10.37,2014-02-03 14:11:00,
2014-02-03 08:16:00,39.5,36.8,30.18,North,9,5.0,5.0,90,0.00,CLR,SKC,0.00,21.0,WeatherDisplay:10.37,2014-02-03 14:16:00,
2014-02-03 08:21:00,39.6,36.9,30.18,NNE,22,8.1,8.1,90,0.00,CLR,SKC,0.00,21.0,WeatherDisplay:10.37,2014-02-03 14:21:00,
2014-02-03 08:26:00,39.7,37.0,30.18,NNE,13,3.5,3.5,90,0.00,CLR,SKC,0.00,19.0,WeatherDisplay:10.37,2014-02-03 14:26:00,
2014-02-03 08:31:00,39.6,36.6,30.18,ENE,57,8.1,8.1,89,0.00,CLR,SKC,0.00,23.0,WeatherDisplay:10.37,2014-02-03 14:31:00,
2014-02-03 08:36:00,39.7,37.0,30.18,NNE,30,9.2,9.2,90,0.00,CLR,SKC,0.00,26.0,WeatherDisplay:10.37,2014-02-03 14:36:00,
2014-02-03 08:41:00,39.8,37.1,30.18,NNE,32,6.9,6.9,90,0.00,CLR,SKC,0.00,33.0,WeatherDisplay:10.37,2014-02-03 14:41:00,
2014-02-03 08:46:00,39.8,37.1,30.18,NNE,24,3.5,3.7,90,0.00,CLR,SKC,0.00,35.0,WeatherDisplay:10.37,2014-02-03 14:46:00,
2014-02-03 08:51:00,39.6,36.9,30.18,NE,35,9.2,9.2,90,0.00,CLR,SKC,0.00,35.0,WeatherDisplay:10.37,2014-02-03 14:51:00,
2014-02-03 08:56:00,39.5,36.8,30.19,ENE,73,5.8,5.8,90,0.00,CLR,SKC,0.00,33.0,WeatherDisplay:10.37,2014-02-03 14:56:00,
2014-02-03 09:01:00,39.6,36.9,30.19,ENE,60,6.9,6.9,90,0.00,CLR,SKC,0.00,35.0,WeatherDisplay:10.37,2014-02-03 15:01:00,
2014-02-03 09:06:00,39.6,36.9,30.19,NNE,20,4.6,4.6,90,0.00,CLR,SKC,0.00,35.0,WeatherDisplay:10.37,2014-02-03 15:06:00,
2014-02-03 09:11:00,39.5,36.8,30.19,NNE,15,6.9,6.9,90,0.00,CLR,SKC,0.00,42.0,WeatherDisplay:10.37,2014-02-03 15:11:00,
2014-02-03 09:16:00,39.5,36.8,30.19,NE,51,10.4,10.4,90,0.00,CLR,SKC,0.00,49.0,WeatherDisplay:10.37,2014-02-03 15:16:00,
2014-02-03 09:21:00,39.4,36.7,30.19,NE,49,10.4,10.4,90,0.00,CLR,SKC,0.00,49.0,WeatherDisplay:10.37,2014-02-03 15:21:00,
2014-02-03 09:26:00,39.5,36.8,30.20,NE,49,10.4,10.4,90,0.00,CLR,SKC,0.00,49.0,WeatherDisplay:10.37,2014-02-03 15:26:00,
2014-02-03 09:31:00,39.6,36.9,30.20,NNE,24,10.4,10.4,90,0.00,CLR,SKC,0.00,54.0,WeatherDisplay:10.37,2014-02-03 15:31:00,
2014-02-03 09:36:00,39.5,37.1,30.20,NE,40,9.0,9.0,91,0.00,CLR,SKC,0.00,62.0,WeatherDisplay:10.37,2014-02-03 15:36:00,
2014-02-03 09:41:00,39.3,36.9,30.20,NNE,28,9.2,9.2,91,0.00,CLR,SKC,0.00,65.0,WeatherDisplay:10.37,2014-02-03 15:41:00,
2014-02-03 09:46:00,39.1,36.7,30.20,NE,55,6.9,6.9,91,0.00,CLR,SKC,0.00,79.0,WeatherDisplay:10.37,2014-02-03 15:46:00,
2014-02-03 09:51:00,39.2,37.1,30.20,NE,41,10.4,10.4,92,0.00,CLR,SKC,0.00,84.0,WeatherDisplay:10.37,2014-02-03 15:51:00,
2014-02-03 09:56:00,39.3,37.2,30.19,NNE,13,10.4,10.4,92,0.00,CLR,SKC,0.00,91.0,WeatherDisplay:10.37,2014-02-03 15:56:00,
2014-02-03 10:01:00,39.2,37.1,30.19,NNE,13,11.5,11.5,92,0.00,CLR,SKC,0.00,90.0,WeatherDisplay:10.37,2014-02-03 16:01:00,
2014-02-03 10:06:00,39.3,37.4,30.19,NNE,23,8.1,8.1,93,0.00,CLR,SKC,0.00,83.0,WeatherDisplay:10.37,2014-02-03 16:06:00,
2014-02-03 10:11:00,39.1,37.0,30.18,NNE,25,6.9,6.9,92,0.00,CLR,SKC,0.00,84.0,WeatherDisplay:10.37,2014-02-03 16:11:00,
2014-02-03 10:16:00,39.2,37.3,30.18,NNE,25,10.4,10.4,93,0.00,CLR,SKC,0.00,86.0,WeatherDisplay:10.37,2014-02-03 16:16:00,
2014-02-03 10:21:00,39.2,37.3,30.18,NNE,32,11.0,11.0,93,0.00,CLR,SKC,0.00,102.0,WeatherDisplay:10.37,2014-02-03 16:21:00,
2014-02-03 10:26:00,39.5,37.6,30.18,NNE,15,9.2,9.2,93,0.00,CLR,SKC,0.00,114.0,WeatherDisplay:10.37,2014-02-03 16:26:00,
2014-02-03 10:31:00,39.6,37.5,30.18,ENE,61,5.8,5.8,92,0.00,CLR,SKC,0.00,127.0,WeatherDisplay:10.37,2014-02-03 16:31:00,
2014-02-03 10:36:00,39.5,37.4,30.18,NNE,19,11.5,11.5,92,0.00,CLR,SKC,0.00,174.0,WeatherDisplay:10.37,2014-02-03 16:36:00,
2014-02-03 10:41:00,39.5,37.4,30.18,NE,45,10.4,10.4,92,0.00,CLR,SKC,0.00,146.0,WeatherDisplay:10.37,2014-02-03 16:41:00,
2014-02-03 10:46:00,39.6,37.5,30.18,NE,45,10.4,10.4,92,0.00,CLR,SKC,0.00,135.0,WeatherDisplay:10.37,2014-02-03 16:46:00,
2014-02-03 10:51:00,39.9,37.8,30.18,NE,48,6.0,6.0,92,0.00,CLR,SKC,0.00,144.0,WeatherDisplay:10.37,2014-02-03 16:51:00,
2014-02-03 10:56:00,40.2,38.1,30.17,NE,54,10.4,10.4,92,0.00,CLR,SKC,0.00,142.0,WeatherDisplay:10.37,2014-02-03 16:56:00,
2014-02-03 11:01:00,40.0,37.9,30.17,NNE,22,10.4,10.4,92,0.00,CLR,SKC,0.00,163.0,WeatherDisplay:10.37,2014-02-03 17:01:00,
2014-02-03 11:06:00,40.2,38.1,30.17,NNE,32,10.4,10.4,92,0.00,CLR,SKC,0.00,148.0,WeatherDisplay:10.37,2014-02-03 17:06:00,
2014-02-03 11:11:00,40.2,37.8,30.16,NNW,332,10.4,10.4,91,0.00,CLR,SKC,0.00,130.0,WeatherDisplay:10.37,2014-02-03 17:11:00,
2014-02-03 11:16:00,40.3,37.9,30.16,NNE,26,9.2,9.2,91,0.00,CLR,SKC,0.00,135.0,WeatherDisplay:10.37,2014-02-03 17:16:00,
2014-02-03 11:21:00,40.2,37.8,30.16,NNE,22,10.4,10.4,91,0.00,CLR,SKC,0.00,144.0,WeatherDisplay:10.37,2014-02-03 17:21:00,
2014-02-03 11:26:00,40.3,37.9,30.16,North,360,9.2,9.2,91,0.00,CLR,SKC,0.00,120.0,WeatherDisplay:10.37,2014-02-03 17:26:00,
2014-02-03 11:31:00,40.5,38.1,30.16,NNE,13,6.9,6.9,91,0.00,CLR,SKC,0.00,111.0,WeatherDisplay:10.37,2014-02-03 17:31:00,
2014-02-03 11:36:00,40.5,38.1,30.16,NNE,15,6.9,6.9,91,0.00,CLR,SKC,0.00,105.0,WeatherDisplay:10.37,2014-02-03 17:36:00,
2014-02-03 11:41:00,40.4,38.0,30.16,NNW,346,6.9,6.9,91,0.00,CLR,SKC,0.00,111.0,WeatherDisplay:10.37,2014-02-03 17:41:00,
2014-02-03 11:46:00,40.4,38.0,30.16,NNE,22,6.9,6.9,91,0.00,CLR,SKC,0.00,105.0,WeatherDisplay:10.37,2014-02-03 17:46:00,
2014-02-03 11:51:00,40.5,38.1,30.16,NNE,14,6.9,6.9,91,0.00,CLR,SKC,0.00,100.0,WeatherDisplay:10.37,2014-02-03 17:51:00,
2014-02-03 11:56:00,40.5,38.1,30.15,NE,44,5.0,5.0,91,0.00,CLR,SKC,0.00,100.0,WeatherDisplay:10.37,2014-02-03 17:56:00,
2014-02-03 12:01:00,40.6,38.2,30.15,North,360,3.5,3.5,91,0.00,CLR,SKC,0.00,100.0,WeatherDisplay:10.37,2014-02-03 18:01:00,
2014-02-03 12:06:00,40.6,38.2,30.15,North,5,6.0,6.0,91,0.00,CLR,SKC,0.00,104.0,WeatherDisplay:10.37,2014-02-03 18:06:00,
2014-02-03 12:11:00,40.5,38.1,30.14,North,355,4.6,4.6,91,0.00,CLR,SKC,0.00,100.0,WeatherDisplay:10.37,2014-02-03 18:11:00,
2014-02-03 12:16:00,40.4,38.0,30.14,NNE,26,5.8,5.8,91,0.00,CLR,SKC,0.00,95.0,WeatherDisplay:10.37,2014-02-03 18:16:00,
2014-02-03 12:21:00,40.5,38.1,30.14,NE,53,8.0,8.0,91,0.00,CLR,SKC,0.00,91.0,WeatherDisplay:10.37,2014-02-03 18:21:00,
2014-02-03 12:26:00,40.6,38.5,30.13,NE,52,8.1,8.1,92,0.00,CLR,SKC,0.00,86.0,WeatherDisplay:10.37,2014-02-03 18:26:00,
2014-02-03 12:31:00,40.7,38.6,30.13,NNE,32,4.6,4.6,92,0.00,CLR,SKC,0.00,88.0,WeatherDisplay:10.37,2014-02-03 18:31:00,
2014-02-03 12:36:00,40.6,38.5,30.13,North,5,5.0,5.0,92,0.00,CLR,SKC,0.00,90.0,WeatherDisplay:10.37,2014-02-03 18:36:00,
2014-02-03 12:41:00,40.6,38.5,30.12,North,360,5.8,5.8,92,0.00,CLR,SKC,0.00,91.0,WeatherDisplay:10.37,2014-02-03 18:41:00,
2014-02-03 12:46:00,40.6,38.5,30.12,NE,34,5.0,5.0,92,0.00,CLR,SKC,0.00,95.0,WeatherDisplay:10.37,2014-02-03 18:46:00,
2014-02-03 12:51:00,40.6,38.5,30.12,North,5,4.6,4.6,92,0.00,CLR,SKC,0.00,98.0,WeatherDisplay:10.37,2014-02-03 18:51:00,
2014-02-03 12:56:00,40.7,38.6,30.10,North,5,6.0,6.0,92,0.00,CLR,SKC,0.00,105.0,WeatherDisplay:10.37,2014-02-03 18:56:00,
2014-02-03 13:01:00,40.9,38.8,30.10,NNE,24,5.8,5.8,92,0.00,CLR,SKC,0.00,113.0,WeatherDisplay:10.37,2014-02-03 19:01:00,
2014-02-03 13:06:00,41.1,39.0,30.10,NNW,339,4.6,4.6,92,0.00,CLR,SKC,0.00,107.0,WeatherDisplay:10.37,2014-02-03 19:06:00,
2014-02-03 13:11:00,41.3,39.2,30.09,NNW,336,5.0,5.0,92,0.00,CLR,SKC,0.00,111.0,WeatherDisplay:10.37,2014-02-03 19:11:00,
2014-02-03 13:16:00,41.2,39.1,30.09,North,10,8.1,8.1,92,0.00,CLR,SKC,0.00,111.0,WeatherDisplay:10.37,2014-02-03 19:16:00,
2014-02-03 13:21:00,41.3,39.2,30.09,NE,36,6.9,6.9,92,0.00,CLR,SKC,0.00,111.0,WeatherDisplay:10.37,2014-02-03 19:21:00,
2014-02-03 13:26:00,41.3,39.2,30.07,NNE,13,5.8,5.8,92,0.00,CLR,SKC,0.00,116.0,WeatherDisplay:10.37,2014-02-03 19:26:00,
2014-02-03 13:31:00,41.4,39.3,30.07,North,11,9.0,9.0,92,0.00,CLR,SKC,0.00,114.0,WeatherDisplay:10.37,2014-02-03 19:31:00,
2014-02-03 13:36:00,41.5,39.3,30.07,NNE,17,10.0,10.0,92,0.00,CLR,SKC,0.00,113.0,WeatherDisplay:10.37,2014-02-03 19:36:00,
2014-02-03 13:41:00,41.4,39.3,30.07,NNE,24,6.9,6.9,92,0.00,CLR,SKC,0.00,107.0,WeatherDisplay:10.37,2014-02-03 19:41:00,
2014-02-03 13:46:00,41.5,39.3,30.07,NNE,13,9.2,9.2,92,0.00,CLR,SKC,0.00,109.0,WeatherDisplay:10.37,2014-02-03 19:46:00,
2014-02-03 13:51:00,41.6,39.4,30.07,NNE,17,9.2,9.2,92,0.00,CLR,SKC,0.00,107.0,WeatherDisplay:10.37,2014-02-03 19:51:00,
2014-02-03 13:56:00,41.7,39.5,30.06,NNE,29,6.9,6.9,92,0.00,CLR,SKC,0.00,104.0,WeatherDisplay:10.37,2014-02-03 19:56:00,
2014-02-03 14:01:00,41.6,39.4,30.06,NNE,21,5.8,5.8,92,0.00,CLR,SKC,0.00,93.0,WeatherDisplay:10.37,2014-02-03 20:01:00,
2014-02-03 14:06:00,41.5,39.1,30.06,NNE,13,11.5,11.5,91,0.00,CLR,SKC,0.00,98.0,WeatherDisplay:10.37,2014-02-03 20:06:00,
2014-02-03 14:11:00,41.7,39.5,30.05,NNE,26,9.2,9.2,92,0.00,CLR,SKC,0.00,95.0,WeatherDisplay:10.37,2014-02-03 20:11:00,
2014-02-03 14:16:00,41.7,39.5,30.05,NNW,340,9.0,9.0,92,0.00,CLR,SKC,0.00,97.0,WeatherDisplay:10.37,2014-02-03 20:16:00,
2014-02-03 14:21:00,41.6,39.4,30.05,NNE,25,6.0,6.0,92,0.00,CLR,SKC,0.00,93.0,WeatherDisplay:10.37,2014-02-03 20:21:00,
2014-02-03 14:26:00,41.7,39.5,30.05,NNE,17,9.0,9.0,92,0.00,CLR,SKC,0.00,88.0,WeatherDisplay:10.37,2014-02-03 20:26:00,
2014-02-03 14:31:00,41.7,39.5,30.05,North,355,10.4,10.4,92,0.00,CLR,SKC,0.00,86.0,WeatherDisplay:10.37,2014-02-03 20:31:00,
2014-02-03 14:36:00,41.8,39.6,30.05,NNW,329,9.2,9.2,92,0.00,CLR,SKC,0.00,83.0,WeatherDisplay:10.37,2014-02-03 20:36:00,
2014-02-03 14:41:00,41.9,39.7,30.04,NNE,20,8.0,8.0,92,0.00,CLR,SKC,0.00,81.0,WeatherDisplay:10.37,2014-02-03 20:41:00,
2014-02-03 14:46:00,41.9,39.7,30.04,North,360,5.8,5.8,92,0.00,CLR,SKC,0.00,72.0,WeatherDisplay:10.37,2014-02-03 20:46:00,
2014-02-03 14:51:00,42.0,39.8,30.04,NNW,346,8.1,8.1,92,0.00,CLR,SKC,0.00,69.0,WeatherDisplay:10.37,2014-02-03 20:51:00,
2014-02-03 14:56:00,42.0,39.8,30.04,NE,34,8.1,8.1,92,0.00,CLR,SKC,0.00,69.0,WeatherDisplay:10.37,2014-02-03 20:56:00,
2014-02-03 15:01:00,41.9,39.7,30.04,NNW,330,6.9,6.9,92,0.00,CLR,SKC,0.00,65.0,WeatherDisplay:10.37,2014-02-03 21:01:00,
2014-02-03 15:06:00,42.0,39.8,30.04,NE,34,11.5,11.5,92,0.00,CLR,SKC,0.00,67.0,WeatherDisplay:10.37,2014-02-03 21:06:00,
2014-02-03 15:11:00,42.0,39.8,30.04,NNE,29,9.2,9.2,92,0.00,CLR,SKC,0.00,56.0,WeatherDisplay:10.37,2014-02-03 21:11:00,
2014-02-03 15:16:00,41.9,39.7,30.04,NNE,14,9.2,9.2,92,0.00,CLR,SKC,0.00,60.0,WeatherDisplay:10.37,2014-02-03 21:16:00,
2014-02-03 15:21:00,42.0,39.8,30.04,NNE,15,9.0,9.0,92,0.00,CLR,SKC,0.00,58.0,WeatherDisplay:10.37,2014-02-03 21:21:00,
2014-02-03 15:26:00,41.9,39.7,30.04,NNE,22,9.2,9.2,92,0.00,CLR,SKC,0.00,54.0,WeatherDisplay:10.37,2014-02-03 21:26:00,
2014-02-03 15:31:00,42.0,39.8,30.04,North,9,8.0,8.0,92,0.00,CLR,SKC,0.00,53.0,WeatherDisplay:10.37,2014-02-03 21:31:00,
2014-02-03 15:36:00,42.1,39.9,30.04,North,360,4.6,4.6,92,0.00,CLR,SKC,0.00,44.0,WeatherDisplay:10.37,2014-02-03 21:36:00,
2014-02-03 15:41:00,42.0,39.8,30.04,North,355,6.9,6.9,92,0.00,CLR,SKC,0.00,46.0,WeatherDisplay:10.37,2014-02-03 21:41:00,
2014-02-03 15:46:00,42.0,39.8,30.04,North,355,9.2,9.2,92,0.00,CLR,SKC,0.00,42.0,WeatherDisplay:10.37,2014-02-03 21:46:00,
2014-02-03 15:51:00,42.0,39.8,30.04,NNE,28,8.1,8.1,92,0.00,CLR,SKC,0.00,40.0,WeatherDisplay:10.37,2014-02-03 21:51:00,
2014-02-03 15:56:00,42.2,40.3,30.04,NNE,27,4.6,4.6,93,0.00,CLR,SKC,0.00,46.0,WeatherDisplay:10.37,2014-02-03 21:56:00,
2014-02-03 16:01:00,42.3,40.1,30.04,North,355,5.8,5.8,92,0.00,CLR,SKC,0.00,40.0,WeatherDisplay:10.37,2014-02-03 22:01:00,
2014-02-03 16:06:00,42.3,40.1,30.04,NE,46,6.0,6.0,92,0.00,CLR,SKC,0.00,40.0,WeatherDisplay:10.37,2014-02-03 22:06:00,
2014-02-03 16:11:00,42.2,40.0,30.02,NNE,13,8.1,8.1,92,0.00,CLR,SKC,0.00,30.0,WeatherDisplay:10.37,2014-02-03 22:11:00,
2014-02-03 16:16:00,42.2,40.3,30.02,North,355,6.9,6.9,93,0.00,CLR,SKC,0.00,26.0,WeatherDisplay:10.37,2014-02-03 22:16:00,
2014-02-03 16:21:00,42.3,40.4,30.02,WNW,302,8.1,8.1,93,0.00,CLR,SKC,0.00,25.0,WeatherDisplay:10.37,2014-02-03 22:21:00,
2014-02-03 16:26:00,42.2,40.0,30.03,North,350,6.0,6.0,92,0.00,CLR,SKC,0.00,23.0,WeatherDisplay:10.37,2014-02-03 22:26:00,
2014-02-03 16:31:00,42.3,40.4,30.03,North,11,6.9,6.9,93,0.00,CLR,SKC,0.00,21.0,WeatherDisplay:10.37,2014-02-03 22:31:00,
2014-02-03 16:36:00,42.4,40.5,30.03,NNW,341,5.8,5.8,93,0.00,CLR,SKC,0.00,18.0,WeatherDisplay:10.37,2014-02-03 22:36:00,
2014-02-03 16:41:00,42.3,40.4,30.03,North,360,6.9,6.9,93,0.00,CLR,SKC,0.00,18.0,WeatherDisplay:10.37,2014-02-03 22:41:00,
2014-02-03 16:46:00,42.4,40.5,30.03,North,5,4.6,4.6,93,0.00,CLR,SKC,0.00,18.0,WeatherDisplay:10.37,2014-02-03 22:46:00,
2014-02-03 16:51:00,42.5,40.6,30.03,North,5,9.2,9.2,93,0.00,CLR,SKC,0.00,16.0,WeatherDisplay:10.37,2014-02-03 22:51:00,
2014-02-03 16:56:00,42.5,40.6,30.02,NNE,13,9.2,9.2,93,0.00,CLR,SKC,0.00,12.0,WeatherDisplay:10.37,2014-02-03 22:56:00,
2014-02-03 17:01:00,42.7,41.1,30.02,North,350,8.1,8.1,94,0.00,CLR,SKC,0.00,12.0,WeatherDisplay:10.37,2014-02-03 23:01:00,
2014-02-03 17:06:00,42.7,41.1,30.02,NNE,30,6.9,6.9,94,0.00,CLR,SKC,0.00,11.0,WeatherDisplay:10.37,2014-02-03 23:06:00,
2014-02-03 17:11:00,42.7,41.1,30.02,NNW,328,6.9,6.9,94,0.00,CLR,SKC,0.00,9.0,WeatherDisplay:10.37,2014-02-03 23:11:00,
2014-02-03 17:16:00,42.8,41.2,30.02,North,9,5.8,5.8,94,0.00,CLR,SKC,0.00,9.0,WeatherDisplay:10.37,2014-02-03 23:16:00,
2014-02-03 17:21:00,42.8,41.2,30.02,NNW,333,9.2,9.2,94,0.00,CLR,SKC,0.00,7.0,WeatherDisplay:10.37,2014-02-03 23:21:00,
2014-02-03 17:26:00,42.9,41.3,30.02,NNE,27,9.2,9.2,94,0.00,CLR,SKC,0.00,7.0,WeatherDisplay:10.37,2014-02-03 23:26:00,
2014-02-03 17:31:00,42.9,41.3,30.02,North,355,8.1,8.1,94,0.00,CLR,SKC,0.00,5.0,WeatherDisplay:10.37,2014-02-03 23:31:00,
2014-02-03 17:36:00,42.9,41.6,30.02,NW,304,4.6,4.6,95,0.00,CLR,SKC,0.00,5.0,WeatherDisplay:10.37,2014-02-03 23:36:00,
2014-02-03 17:41:00,43.0,41.7,30.02,NW,321,10.4,10.4,95,0.00,CLR,SKC,0.00,5.0,WeatherDisplay:10.37,2014-02-03 23:41:00,
2014-02-03 17:46:00,43.1,41.8,30.02,NW,311,9.2,9.2,95,0.00,CLR,SKC,0.00,0.0,WeatherDisplay:10.37,2014-02-03 23:46:00,
2014-02-03 17:51:00,43.1,41.8,30.02,NW,321,8.1,8.1,95,0.00,CLR,SKC,0.00,0.0,WeatherDisplay:10.37,2014-02-03 23:51:00,
2014-02-03 17:56:00,42.8,41.5,30.02,NW,317,10.4,10.4,95,0.00,CLR,SKC,0.00,0.0,WeatherDisplay:10.37,2014-02-03 23:56:00,
2014-02-03 18:01:00,42.8,41.5,30.02,NW,317,8.1,8.1,95,0.00,CLR,SKC,0.00,0.0,WeatherDisplay:10.37,2014-02-04 00:01:00,
2014-02-03 18:06:00,42.8,41.5,30.02,NW,319,10.4,10.4,95,0.00,CLR,SKC,0.00,0.0,WeatherDisplay:10.37,2014-02-04 00:06:00,
2014-02-03 18:11:00,42.5,41.2,30.02,WNW,298,10.4,10.4,95,0.00,CLR,SKC,0.00,0.0,WeatherDisplay:10.37,2014-02-04 00:11:00,
2014-02-03 18:16:00,42.7,41.4,30.02,NNW,330,9.2,9.2,95,0.00,CLR,SKC,0.00,0.0,WeatherDisplay:10.37,2014-02-04 00:16:00,
2014-02-03 18:21:00,42.7,41.4,30.02,NW,314,6.9,6.9,95,0.00,CLR,SKC,0.00,0.0,WeatherDisplay:10.37,2014-02-04 00:21:00,
2014-02-03 18:26:00,42.8,41.5,30.01,NNW,342,6.9,6.9,95,0.00,CLR,SKC,0.00,0.0,WeatherDisplay:10.37,2014-02-04 00:26:00,
2014-02-03 18:31:00,42.7,41.4,30.01,NNW,337,10.0,10.0,95,0.00,CLR,SKC,0.00,0.0,WeatherDisplay:10.37,2014-02-04 00:31:00,
2014-02-03 18:36:00,42.8,41.5,30.01,NW,319,7.0,7.0,95,0.00,CLR,SKC,0.00,0.0,WeatherDisplay:10.37,2014-02-04 00:36:00,
2014-02-03 18:41:00,42.8,41.5,30.01,North,355,6.0,6.0,95,0.00,CLR,SKC,0.00,0.0,WeatherDisplay:10.37,2014-02-04 00:41:00,
2014-02-03 18:46:00,42.6,41.3,30.01,NNW,348,9.2,9.2,95,0.00,CLR,SKC,0.00,0.0,WeatherDisplay:10.37,2014-02-04 00:46:00,
2014-02-03 18:51:00,42.7,41.4,30.01,NNW,343,9.0,9.0,95,0.00,CLR,SKC,0.00,0.0,WeatherDisplay:10.37,2014-02-04 00:51:00,
2014-02-03 18:56:00,42.7,41.4,30.00,NNW,342,9.2,9.2,95,0.00,CLR,SKC,0.00,0.0,WeatherDisplay:10.37,2014-02-04 00:56:00,
2014-02-03 19:01:00,42.9,41.8,30.00,NE,36,9.2,9.2,96,0.00,CLR,SKC,0.00,0.0,WeatherDisplay:10.37,2014-02-04 01:01:00,
2014-02-03 19:06:00,42.8,41.5,30.00,North,5,11.5,11.5,95,0.00,CLR,SKC,0.00,0.0,WeatherDisplay:10.37,2014-02-04 01:06:00,
2014-02-03 19:11:00,43.0,41.9,30.00,NNW,344,11.5,11.5,96,0.00,CLR,SKC,0.00,0.0,WeatherDisplay:10.37,2014-02-04 01:11:00,
2014-02-03 19:16:00,42.9,41.6,30.00,NNE,19,11.5,11.5,95,0.00,CLR,SKC,0.00,0.0,WeatherDisplay:10.37,2014-02-04 01:16:00,
2014-02-03 19:21:00,43.0,41.9,30.00,NNE,30,11.5,11.5,96,0.00,CLR,SKC,0.00,0.0,WeatherDisplay:10.37,2014-02-04 01:21:00,
2014-02-03 19:26:00,43.1,42.0,29.99,North,360,11.5,11.5,96,0.00,CLR,SKC,0.00,0.0,WeatherDisplay:10.37,2014-02-04 01:26:00,
2014-02-03 19:31:00,43.1,42.0,29.99,NNE,17,9.0,9.0,96,0.00,CLR,SKC,0.00,0.0,WeatherDisplay:10.37,2014-02-04 01:31:00,
2014-02-03 19:36:00,43.2,42.1,29.99,NNE,29,6.9,6.9,96,0.00,CLR,SKC,0.00,0.0,WeatherDisplay:10.37,2014-02-04 01:36:00,
2014-02-03 19:41:00,43.3,42.2,29.99,NNE,13,10.4,10.4,96,0.00,CLR,SKC,0.00,0.0,WeatherDisplay:10.37,2014-02-04 01:41:00,
2014-02-03 19:46:00,43.4,42.3,29.99,NNW,339,11.5,11.5,96,0.00,CLR,SKC,0.00,0.0,WeatherDisplay:10.37,2014-02-04 01:46:00,
2014-02-03 19:51:00,43.3,42.0,29.99,NNW,342,7.0,7.0,95,0.00,CLR,SKC,0.00,0.0,WeatherDisplay:10.37,2014-02-04 01:51:00,
2014-02-03 19:56:00,43.2,42.1,29.99,NNE,15,11.5,11.5,96,0.00,CLR,SKC,0.00,0.0,WeatherDisplay:10.37,2014-02-04 01:56:00,
2014-02-03 20:01:00,43.3,42.2,29.99,NNW,348,13.8,13.8,96,0.00,CLR,SKC,0.00,0.0,WeatherDisplay:10.37,2014-02-04 02:01:00,
2014-02-03 20:06:00,43.4,42.3,29.99,North,355,7.0,7.0,96,0.00,CLR,SKC,0.00,0.0,WeatherDisplay:10.37,2014-02-04 02:06:00,
2014-02-03 20:11:00,43.4,42.1,29.99,NNW,348,11.5,11.5,95,0.00,CLR,SKC,0.00,0.0,WeatherDisplay:10.37,2014-02-04 02:11:00,
2014-02-03 20:16:00,43.5,42.4,29.99,North,5,6.0,6.0,96,0.00,CLR,SKC,0.00,0.0,WeatherDisplay:10.37,2014-02-04 02:16:00,
2014-02-03 20:21:00,43.5,42.2,29.99,WNW,299,6.0,6.0,95,0.00,CLR,SKC,0.00,0.0,WeatherDisplay:10.37,2014-02-04 02:21:00,
2014-02-03 20:26:00,43.6,42.5,29.99,NNE,24,6.9,6.9,96,0.00,CLR,SKC,0.00,0.0,WeatherDisplay:10.37,2014-02-04 02:26:00,
2014-02-03 20:31:00,43.6,42.5,29.99,NNE,19,11.5,11.5,96,0.00,CLR,SKC,0.00,0.0,WeatherDisplay:10.37,2014-02-04 02:31:00,
2014-02-03 20:36:00,43.6,42.5,29.99,North,355,9.2,9.2,96,0.00,CLR,SKC,0.00,0.0,WeatherDisplay:10.37,2014-02-04 02:36:00,
2014-02-03 20:41:00,43.7,42.6,29.99,NNW,347,10.4,10.4,96,0.00,CLR,SKC,0.00,0.0,WeatherDisplay:10.37,2014-02-04 02:41:00,
2014-02-03 20:46:00,43.7,42.6,29.99,NW,315,9.2,9.2,96,0.00,CLR,SKC,0.00,0.0,WeatherDisplay:10.37,2014-02-04 02:46:00,
2014-02-03 20:51:00,43.8,42.7,29.99,North,355,5.8,5.8,96,0.00,CLR,SKC,0.00,0.0,WeatherDisplay:10.37,2014-02-04 02:51:00,
2014-02-03 20:56:00,43.9,42.8,29.98,NNW,338,9.0,9.0,96,0.00,CLR,SKC,0.00,0.0,WeatherDisplay:10.37,2014-02-04 02:56:00,
2014-02-03 21:01:00,43.9,42.8,29.98,North,355,10.4,10.4,96,0.00,CLR,SKC,0.00,0.0,WeatherDisplay:10.37,2014-02-04 03:01:00,
2014-02-03 21:06:00,44.0,42.9,29.98,North,350,11.5,11.5,96,0.00,CLR,SKC,0.00,0.0,WeatherDisplay:10.37,2014-02-04 03:06:00,
2014-02-03 21:11:00,44.0,42.9,29.98,NNE,18,9.2,9.2,96,0.00,CLR,SKC,0.00,0.0,WeatherDisplay:10.37,2014-02-04 03:11:00,
2014-02-03 21:16:00,44.3,43.2,29.98,NNE,13,8.1,8.1,96,0.00,CLR,SKC,0.00,0.0,WeatherDisplay:10.37,2014-02-04 03:16:00,
2014-02-03 21:21:00,44.3,43.2,29.98,NNE,28,5.8,5.8,96,0.00,CLR,SKC,0.00,0.0,WeatherDisplay:10.37,2014-02-04 03:21:00,
2014-02-03 21:26:00,44.5,43.4,29.98,NNE,12,6.9,6.9,96,0.00,CLR,SKC,0.00,0.0,WeatherDisplay:10.37,2014-02-04 03:26:00,
2014-02-03 21:31:00,44.7,43.6,29.98,North,9,4.6,4.6,96,0.00,CLR,SKC,0.00,0.0,WeatherDisplay:10.37,2014-02-04 03:31:00,
2014-02-03 21:36:00,45.0,43.9,29.98,NNE,31,9.0,9.0,96,0.00,CLR,SKC,0.00,0.0,WeatherDisplay:10.37,2014-02-04 03:36:00,
2014-02-03 21:41:00,45.1,44.0,29.98,NNE,15,6.9,6.9,96,0.00,CLR,SKC,0.00,0.0,WeatherDisplay:10.37,2014-02-04 03:41:00,
2014-02-03 21:46:00,45.3,44.2,29.98,NE,52,11.5,11.5,96,0.00,CLR,SKC,0.00,0.0,WeatherDisplay:10.37,2014-02-04 03:46:00,
2014-02-03 21:51:00,45.2,44.1,29.98,NE,38,11.5,11.5,96,0.00,CLR,SKC,0.00,0.0,WeatherDisplay:10.37,2014-02-04 03:51:00,
2014-02-03 21:56:00,45.2,44.1,29.96,NE,47,12.7,12.7,96,0.00,CLR,SKC,0.00,0.0,WeatherDisplay:10.37,2014-02-04 03:56:00,
2014-02-03 22:01:00,45.3,44.2,29.96,NNE,23,10.4,10.4,96,0.00,CLR,SKC,0.00,0.0,WeatherDisplay:10.37,2014-02-04 04:01:00,
2014-02-03 22:06:00,45.3,44.2,29.96,NW,324,10.4,10.4,96,0.00,CLR,SKC,0.00,0.0,WeatherDisplay:10.37,2014-02-04 04:06:00,
2014-02-03 22:11:00,45.5,44.4,29.96,North,360,6.9,6.9,96,0.00,CLR,SKC,0.00,0.0,WeatherDisplay:10.37,2014-02-04 04:11:00,
2014-02-03 22:16:00,45.4,44.3,29.96,NNE,24,9.0,9.0,96,0.00,CLR,SKC,0.00,0.0,WeatherDisplay:10.37,2014-02-04 04:16:00,
2014-02-03 22:21:00,45.5,44.4,29.96,NNE,29,10.4,10.4,96,0.00,CLR,SKC,0.00,0.0,WeatherDisplay:10.37,2014-02-04 04:21:00,
2014-02-03 22:26:00,45.4,44.3,29.95,NE,42,10.4,10.4,96,0.00,CLR,SKC,0.00,0.0,WeatherDisplay:10.37,2014-02-04 04:26:00,
2014-02-03 22:31:00,45.5,44.4,29.95,NNE,15,8.1,8.1,96,0.00,CLR,SKC,0.00,0.0,WeatherDisplay:10.37,2014-02-04 04:31:00,
2014-02-03 22:36:00,45.5,44.4,29.95,NNE,27,10.4,10.4,96,0.00,CLR,SKC,0.00,0.0,WeatherDisplay:10.37,2014-02-04 04:36:00,
2014-02-03 22:41:00,45.6,44.5,29.94,NNE,26,11.5,11.5,96,0.00,CLR,SKC,0.00,0.0,WeatherDisplay:10.37,2014-02-04 04:41:00,
2014-02-03 22:46:00,45.6,44.5,29.94,NE,38,10.4,10.4,96,0.00,CLR,SKC,0.00,0.0,WeatherDisplay:10.37,2014-02-04 04:46:00,
2014-02-03 22:51:00,45.6,44.5,29.94,NE,48,5.8,5.8,96,0.00,CLR,SKC,0.00,0.0,WeatherDisplay:10.37,2014-02-04 04:51:00,
2014-02-03 22:56:00,45.7,44.6,29.93,NNE,24,6.9,6.9,96,0.00,CLR,SKC,0.00,0.0,WeatherDisplay:10.37,2014-02-04 04:56:00,
2014-02-03 23:01:00,45.7,44.6,29.93,NNE,28,6.9,6.9,96,0.00,CLR,SKC,0.00,0.0,WeatherDisplay:10.37,2014-02-04 05:01:00,
2014-02-03 23:06:00,45.9,44.8,29.93,North,11,3.5,3.5,96,0.00,CLR,SKC,0.00,0.0,WeatherDisplay:10.37,2014-02-04 05:06:00,
2014-02-03 23:11:00,46.1,45.0,29.93,North,5,4.6,4.6,96,0.00,CLR,SKC,0.00,0.0,WeatherDisplay:10.37,2014-02-04 05:11:00,
2014-02-03 23:16:00,46.1,45.0,29.93,NW,320,4.6,4.6,96,0.00,CLR,SKC,0.00,0.0,WeatherDisplay:10.37,2014-02-04 05:16:00,
2014-02-03 23:21:00,46.1,45.0,29.93,NNE,16,4.6,4.6,96,0.00,CLR,SKC,0.00,0.0,WeatherDisplay:10.37,2014-02-04 05:21:00,
2014-02-03 23:26:00,46.2,45.1,29.92,NE,34,4.6,4.6,96,0.00,CLR,SKC,0.00,0.0,WeatherDisplay:10.37,2014-02-04 05:26:00,
2014-02-03 23:31:00,46.6,45.5,29.92,NNE,31,5.8,5.8,96,0.00,CLR,SKC,0.00,0.0,WeatherDisplay:10.37,2014-02-04 05:31:00,
2014-02-03 23:36:00,46.9,45.8,29.92,NE,38,5.8,5.8,96,0.00,CLR,SKC,0.00,0.0,WeatherDisplay:10.37,2014-02-04 05:36:00,
2014-02-03 23:41:00,47.3,46.5,29.91,NE,39,4.0,4.0,97,0.00,CLR,SKC,0.00,0.0,WeatherDisplay:10.37,2014-02-04 05:41:00,
2014-02-03 23:46:00,47.9,47.1,29.91,North,9,5.8,5.8,97,0.00,CLR,SKC,0.00,0.0,WeatherDisplay:10.37,2014-02-04 05:46:00,
2014-02-03 23:51:00,48.7,47.9,29.91,NE,36,4.0,4.0,97,0.00,CLR,SKC,0.00,0.0,WeatherDisplay:10.37,2014-02-04 05:51:00,
2014-02-03 23:56:00,49.2,48.4,29.90,NNE,32,6.0,6.0,97,0.00,CLR,SKC,0.00,0.0,WeatherDisplay:10.37,2014-02-04 05:56:00,